Location: Ammerl�gen
(47.2167°N, 9.6000°E)
Time: 11:00:51
(UTC+00:00)

Cosmos 1741 Rocket - Pass Details

Date: 21 April 2021
Orbit: 762 x 782 km, 74.0° (Epoch: 07 May)

Event Time Altitude Azimuth Distance (km) Brightness Sun altitude
Exits shadow 21:01:01 43° 90° (E) 1,076 4.4 -23.0°
Drops below altitude 10° 21:05:35 10° 34° (NNE) 2,330 6.7 -23.5°
Sets 21:08:03 0° 28° (NNE) 3,258 7.6 -23.7°
